Location: Observatoire du C�gep de Trois-Rivi�res � Champlain
(46.4753°N, 72.3231°W)
Time: 09:41:52
(UTC-04:00)

Envisat - Visible Passes

Search period start: 21 April 2018 00:00
Search period end: 01 May 2018 00:00
Orbit: 764 x 766 km, 98.2° (Epoch: 21 April)

Date Brightness Start Highest point End Pass type
(mag) Time Alt. Az. Time Alt. Az. Time Alt. Az.
21 Apr 3.1 20:07:31 10° SSE 20:12:35 85° WSW 20:17:43 10° NNW visible
21 Apr 5.9 21:50:49 10° WSW 21:52:24 11° W 21:53:58 10° WNW visible
22 Apr 5.2 21:11:07 10° SSW 21:15:12 24° W 21:19:20 10° NW visible
23 Apr 3.9 20:33:19 10° S 20:38:14 50° W 20:43:12 10° NNW visible
24 Apr 5.7 21:38:22 10° WSW 21:41:05 14° W 21:43:50 10° NW visible
25 Apr 4.9 20:59:32 10° SSW 21:03:57 30° W 21:08:25 10° NNW visible
26 Apr 3.6 20:22:01 10° S 20:27:03 63° WSW 20:32:07 10° NNW visible
27 Apr 5.6 21:26:22 10° SW 21:29:48 18° W 21:33:15 10° NW visible
28 Apr 4.5 20:48:03 10° SSW 20:52:44 37° W 20:57:27 10° NNW visible
29 Apr 6.1 21:55:13 10° W 21:55:44 10° W 21:56:16 10° W visible
30 Apr 5.3 21:14:36 10° SW 21:18:32 22° W 21:22:29 10° NW visible
